カタログに戻る

COSMOS 1275 DEB

運用中PO
NORAD 42214·DEBRIS·🇷🇺 Russia

打ち上げ Jun 4, 1981 から Plesetsk Cosmodrome

Loading…

次のパス (今後24時間)

TLE

経年Source: Space-Track

元期: Sep 11, 2026, 05:26 UTC

1 42214U 81053UE  26254.22675123  .00000362  00000-0  31833-3 0  9999
2 42214  83.0162  71.9708 0078441 255.6332 103.6111 13.81555332 68820

AllMySatでCOSMOS 1275 DEBをリアルタイム追跡

Download on the App Store